Location: Mohawk View
(42.7837°N, 73.7885°W)
Time: 08:34:06
(UTC+00:00)

X-37B - Pass Details

Date: 17 June 2021
Orbit: 383 x 392 km, 45.0° (Epoch: 01 July)

Event Time Altitude Azimuth Distance (km) Brightness Sun altitude
Exits shadow 06:21:07 57° 46° (NE) 457 1.1 -21.0°
Drops below altitude 10° 06:23:47 10° 73° (ENE) 1,408 3.9 -20.8°
Sets 06:25:52 0° 75° (ENE) 2,265 5.0 -20.7°
